Location: ??????????
(54.8537°N, 38.8755°E)
Time: 01:06:45
(UTC+00:00)

Transit 4A - Pass Details

Date: 16 September 2024
Orbit: 865 x 977 km, 66.8° (Epoch: 09 October)

Event Time Altitude Azimuth Distance (km) Brightness Sun altitude
Exits shadow 01:32:31 17° 236° (SW) 2,080 9.1 -12.9°
Maximum altitude 01:37:07 69° 317° (NW) 968 7.9 -12.3°
Drops below altitude 10° 01:43:12 10° 41° (NE) 2,629 11.3 -11.5°
Sets 01:45:47 0° 44° (NE) 3,593 12.3 -11.1°
